User: anonymous   Login
Location: Montr�al
(45.5000°N, 73.5830°W)
Time: 13:52:52
(UTC-04:00)
Language:

Cosmos 1151 Rocket - Orbit

View from above orbital plane
View from above orbital plane
View from above satellite
View from above satellite

Ground track
Ground track

The orbit data is extracted from the following two-line orbital elements,

1 11672U 80005B   15123.03620205  .00000462  00000-0  48064-4 0  9998
2 11672 082.5147 091.8124 0017357 018.7207 341.4645 14.87568076907992
Epoch (UTC): 03 May 2015 00:52:07
Eccentricity: 0.0017357
inclination: 82.5147°
perigee height: 593 km
apogee height: 617 km
right ascension of ascending node: 91.8124°
argument of perigee: 18.7207°
revolutions per day: 14.87568076
mean anomaly at epoch: 341.4645°
orbit number at epoch: 90799

The dashed part of the orbit path shows where the satellite is in the earth's shadow,  

DLR